sat.trackr.live / text

‹ back to catalog

STARLINK-30824

NORAD 58176 · 2023-167B

PAYLOAD ACTIVE UNKNOWN

§ Identity

Operator
Country
US
Launch date
2023-10-30
Launch site
AFETR
Launch vehicle
Mass (kg)
RCS (m²)

Purposes: comms

External: N2YO · Heavens-Above · Gunter

§ Orbital elements

Epoch: 2026-09-19T22:54:59.122944Z

Period
94.27 min
Inclination
43.0018°
Eccentricity
0.0001237
Mean motion
15.27578519 rev/d
Perigee alt
482.2 km
Apogee alt
483.9 km
Semi-major
6,861.2 km
B*
5.8889e-5
RAAN
126.4571°
Arg perigee
270.5406°
Mean anomaly
89.5304°
Rev number
16,069

§ Raw data

STARLINK-308241 58176U 23167B   26262.95485096  .00001359  00000+0  58889-4 0  99992 58176  43.0018 126.4571 0001237 270.5406  89.5304 15.27578519160699

JSON: /api/v1/satellites/58176 · /tle

For live sub-satellite position, see the globe view (requires WebGL).

§ Visibility from observer

Set your observer location to see the next 7 days of passes ≥ 10°. The values pass through the URL so the page stays shareable.

No JS? Fill the form by hand. The geolocation button needs JavaScript.